Location: Bonneuil
(46.1010°N, 2.9693°E)
Time: 11:03:19
(UTC+00:00)

STARLINK-1231 - Pass Details

Date: 09 April 2020
Orbit: 548 x 551 km, 53.0° (Epoch: 04 June)

Event Time Altitude Azimuth Distance (km) Brightness Sun altitude
Rises 19:40:11 0° 299° (WNW) 2,760 9.3 -12.6°
Reaches altitude 10° 19:42:27 10° 296° (WNW) 1,860 7.8 -13.0°
Maximum altitude 19:46:38 60° 217° (SW) 644 4.0 -13.6°
Enters shadow 19:49:17 21° 142° (SE) 1,283 4.9 -14.0°
